Time,TemperatureF,DewpointF,PressureIn,WindDirection,WindDirectionDegrees,WindSpeedMPH,WindSpeedGustMPH,Humidity,HourlyPrecipIn,Conditions,Clouds,dailyrainin,SoftwareType,DateUTC
2013-08-27 00:23:00,73.0,68.0,29.84,SW,225,0.0,0.0,85,0.00,,,0.12,,2013-08-27 05:23:00,
2013-08-27 00:52:00,73.0,68.0,29.84,SE,135,1.0,1.0,85,0.00,,,0.12,,2013-08-27 05:52:00,
2013-08-27 01:02:00,73.0,68.0,29.84,SE,135,1.0,1.0,85,0.00,,,0.12,,2013-08-27 06:02:00,
2013-08-27 01:22:00,73.0,68.0,29.84,ENE,58,2.0,2.0,84,0.14,,,0.26,,2013-08-27 06:22:00,
2013-08-27 01:52:00,72.0,67.0,29.83,East,97,1.0,3.0,84,0.14,,,0.26,,2013-08-27 06:52:00,
2013-08-27 02:12:00,72.0,67.0,29.82,ESE,105,1.0,3.0,84,0.02,,,0.26,,2013-08-27 07:12:00,
2013-08-27 02:21:00,72.0,67.0,29.82,ESE,105,1.0,3.0,84,0.02,,,0.26,,2013-08-27 07:21:00,
2013-08-27 02:52:00,72.0,67.0,29.80,SSE,149,3.0,4.0,85,0.00,,,0.26,,2013-08-27 07:52:00,
2013-08-27 03:02:00,72.0,67.0,29.80,SSE,149,3.0,4.0,85,0.00,,,0.26,,2013-08-27 08:02:00,
2013-08-27 03:22:00,72.0,67.0,29.80,SE,135,0.0,1.0,85,0.00,,,0.26,,2013-08-27 08:22:00,
2013-08-27 03:52:00,72.0,67.0,29.80,SE,135,0.0,0.0,85,0.00,,,0.26,,2013-08-27 08:52:00,
2013-08-27 04:21:00,72.0,67.0,29.81,SE,135,0.0,0.0,85,0.00,,,0.26,,2013-08-27 09:21:00,
2013-08-27 04:54:00,72.0,67.0,29.81,SE,135,0.0,0.0,85,0.00,,,0.26,,2013-08-27 09:54:00,
2013-08-27 05:25:00,71.0,66.0,29.80,SE,135,0.0,0.0,85,0.00,,,0.26,,2013-08-27 10:25:00,
2013-08-27 05:53:00,71.0,66.0,29.81,SE,135,0.0,0.0,85,0.00,,,0.26,,2013-08-27 10:53:00,
2013-08-27 06:22:00,71.0,66.0,29.81,SE,135,0.0,0.0,85,0.00,,,0.26,,2013-08-27 11:22:00,
2013-08-27 06:52:00,70.0,65.0,29.82,SE,135,0.0,0.0,85,0.00,,,0.26,,2013-08-27 11:52:00,
2013-08-27 07:21:00,70.0,65.0,29.83,SE,135,0.0,0.0,85,0.00,,,0.26,,2013-08-27 12:21:00,
2013-08-27 07:52:00,70.0,65.0,29.83,SE,135,0.0,0.0,85,0.00,,,0.26,,2013-08-27 12:52:00,
2013-08-27 08:22:00,71.0,66.0,29.84,ESE,113,0.0,0.0,85,0.00,,,0.26,,2013-08-27 13:22:00,
2013-08-27 08:52:00,71.0,66.0,29.85,ENE,68,0.0,2.0,85,0.00,,,0.26,,2013-08-27 13:52:00,
2013-08-27 09:22:00,71.0,66.0,29.85,ESE,113,1.0,1.0,85,0.00,,,0.26,,2013-08-27 14:22:00,
2013-08-27 09:53:00,71.0,66.0,29.85,East,90,1.0,2.0,85,0.00,,,0.26,,2013-08-27 14:53:00,
2013-08-27 10:22:00,71.0,66.0,29.86,NE,52,2.0,3.0,85,0.00,,,0.26,,2013-08-27 15:22:00,
2013-08-27 10:58:00,72.0,67.0,29.86,WSW,248,0.0,0.0,85,0.00,,,0.26,,2013-08-27 15:58:00,
2013-08-27 11:28:00,73.0,68.0,29.87,North,5,1.0,1.0,85,0.00,,,0.26,,2013-08-27 16:28:00,
2013-08-27 11:55:00,73.0,68.0,29.87,SE,135,0.0,1.0,85,0.00,,,0.26,,2013-08-27 16:55:00,
2013-08-27 12:23:00,74.0,69.0,29.87,ENE,68,0.0,0.0,85,0.00,,,0.26,,2013-08-27 17:23:00,
2013-08-27 12:52:00,75.0,70.0,29.87,NW,310,1.0,1.0,85,0.00,,,0.26,,2013-08-27 17:52:00,
2013-08-27 13:22:00,76.0,71.0,29.87,WSW,240,0.0,1.0,84,0.00,,,0.26,,2013-08-27 18:22:00,
2013-08-27 13:53:00,77.0,71.0,29.87,WNW,301,1.0,1.0,83,0.00,,,0.26,,2013-08-27 18:53:00,